When you browse on this site, cookies collect data to enhance your experience and personalize the content and advertising you see.
Visit our Privacy Policy to learn more. By continuing to use the site, you agree to this use of cookies and data.
  • In United Kingdom
  • List of Countries
  • For 7 days
  • Water Temperature
  • Satellite Maps
  • Weather Map
  • Weather Widgets
  • user-avatar
    Login

    Hourly Weather Maslakhat

    Today, 20 March, Wednesday

    Time Temperature Precipitation Wind Pressure Humidity
    00:00 +16°C° 0.2 mm 3 mps 724 mmHg 54%
    01:00 +15°C° 0.2 mm 2 mps 725 mmHg 58%
    02:00 +15°C° 0.2 mm 2 mps 725 mmHg 61%
    03:00 +14°C° 0.8 mm 2 mps 725 mmHg 67%
    04:00 +14°C° 0.8 mm 2 mps 725 mmHg 72%
    05:00 +14°C° 0 mm 1 mps 725 mmHg 74%
    06:00 +14°C° 0.8 mm 1 mps 725 mmHg 76%
    07:00 +13°C° 0.8 mm 1 mps 725 mmHg 78%
    08:00 +13°C° 0.8 mm 1 mps 725 mmHg 80%
    09:00 +14°C° 0.7 mm 1 mps 725 mmHg 78%
    10:00 +14°C° 0.7 mm 1 mps 724 mmHg 77%
    11:00 +14°C° 0 mm 2 mps 724 mmHg 74%
    12:00 +15°C° 0.2 mm 2 mps 724 mmHg 71%
    13:00 +15°C° 0.2 mm 2 mps 724 mmHg 67%
    14:00 +16°C° 0.2 mm 2 mps 724 mmHg 64%
    15:00 +16°C° 0.1 mm 2 mps 724 mmHg 62%
    16:00 +16°C° 0.1 mm 2 mps 724 mmHg 60%
    17:00 +18°C° 0 mm 1 mps 725 mmHg 58%
    18:00 +18°C° 0.4 mm 1 mps 725 mmHg 61%
    19:00 +16°C° 0.4 mm 1 mps 726 mmHg 64%
    20:00 +16°C° 0.4 mm 1 mps 726 mmHg 67%
    21:00 +15°C° 0.5 mm 2 mps 726 mmHg 68%
    22:00 +15°C° 0.5 mm 2 mps 727 mmHg 70%
    23:00 +14°C° 0.5 mm 2 mps 727 mmHg 71%

    Tomorrow, 21 March, Thursday

    Time Temperature Precipitation Wind Pressure Humidity
    00:00 +14°C° 0.2 mm 2 mps 727 mmHg 73%
    01:00 +14°C° 0.2 mm 2 mps 727 mmHg 74%
    02:00 +13°C° 0.2 mm 2 mps 727 mmHg 75%
    03:00 +13°C° 0 mm 2 mps 728 mmHg 75%
    04:00 +13°C° 0 mm 2 mps 728 mmHg 76%
    05:00 +13°C° 0 mm 2 mps 728 mmHg 76%
    06:00 +13°C° 0 mm 1 mps 728 mmHg 72%
    07:00 +14°C° 0 mm 1 mps 729 mmHg 69%
    08:00 +14°C° 0 mm 1 mps 729 mmHg 65%
    09:00 +15°C° 0.2 mm 1 mps 729 mmHg 61%
    10:00 +16°C° 0.2 mm 1 mps 729 mmHg 56%
    11:00 +17°C° 0.2 mm 0 mps 729 mmHg 52%
    12:00 +19°C° 0.1 mm 1 mps 728 mmHg 48%
    13:00 +20°C° 0.1 mm 1 mps 728 mmHg 44%
    14:00 +21°C° 0.1 mm 1 mps 728 mmHg 40%
    15:00 +21°C° 0 mm 1 mps 728 mmHg 39%
    16:00 +21°C° 0 mm 1 mps 728 mmHg 38%
    17:00 +21°C° 0 mm 1 mps 728 mmHg 36%
    18:00 +20°C° 0 mm 1 mps 729 mmHg 39%
    19:00 +18°C° 0 mm 0 mps 729 mmHg 42%
    20:00 +17°C° 0 mm 0 mps 730 mmHg 44%
    21:00 +18°C° 0 mm 1 mps 730 mmHg 46%
    22:00 +18°C° 0 mm 1 mps 730 mmHg 48%
    23:00 +16°C° 0 mm 2 mps 730 mmHg 50%

    Day after tomorrow, 22 March, Friday

    Time Temperature Precipitation Wind Pressure Humidity
    00:00 +16°C° 0 mm 2 mps 730 mmHg 51%
    01:00 +16°C° 0 mm 2 mps 730 mmHg 51%
    02:00 +15°C° 0 mm 1 mps 730 mmHg 51%
    03:00 +15°C° 0 mm 2 mps 730 mmHg 51%
    04:00 +14°C° 0 mm 2 mps 730 mmHg 51%
    05:00 +14°C° 0 mm 2 mps 730 mmHg 50%
    06:00 +14°C° 0 mm 2 mps 730 mmHg 47%
    07:00 +14°C° 0 mm 2 mps 730 mmHg 45%
    08:00 +14°C° 0 mm 3 mps 730 mmHg 42%
    09:00 +16°C° 0 mm 3 mps 729 mmHg 37%
    10:00 +18°C° 0 mm 3 mps 729 mmHg 32%
    11:00 +19°C° 0 mm 3 mps 728 mmHg 27%
    12:00 +20°C° 0 mm 2 mps 728 mmHg 25%
    13:00 +22°C° 0 mm 1 mps 727 mmHg 23%
    14:00 +23°C° 0 mm 1 mps 727 mmHg 21%
    15:00 +23°C° 0 mm 1 mps 727 mmHg 21%
    16:00 +23°C° 0 mm 1 mps 727 mmHg 21%
    17:00 +23°C° 0 mm 1 mps 727 mmHg 21%
    18:00 +22°C° 0 mm 1 mps 727 mmHg 24%
    19:00 +21°C° 0 mm 1 mps 728 mmHg 28%
    20:00 +20°C° 0 mm 1 mps 728 mmHg 31%
    21:00 +18°C° 0 mm 2 mps 728 mmHg 33%
    22:00 +17°C° 0 mm 2 mps 728 mmHg 34%
    23:00 +16°C° 0 mm 2 mps 728 mmHg 36%

    23 March, Saturday

    Time Temperature Precipitation Wind Pressure Humidity
    00:00 +16°C° 0 mm 2 mps 728 mmHg 36%
    01:00 +14°C° 0 mm 3 mps 727 mmHg 36%
    02:00 +14°C° 0 mm 3 mps 727 mmHg 37%
    03:00 +13°C° 0 mm 3 mps 727 mmHg 36%
    04:00 +14°C° 0 mm 2 mps 726 mmHg 36%
    05:00 +13°C° 0 mm 2 mps 726 mmHg 35%
    06:00 +14°C° 0 mm 2 mps 726 mmHg 34%
    07:00 +14°C° 0 mm 1 mps 726 mmHg 33%
    08:00 +15°C° 0 mm 1 mps 726 mmHg 32%
    09:00 +16°C° 0 mm 1 mps 725 mmHg 28%
    10:00 +19°C° 0 mm 1 mps 725 mmHg 25%
    11:00 +20°C° 0 mm 1 mps 725 mmHg 22%
    12:00 +21°C° 0 mm 1 mps 725 mmHg 20%
    13:00 +21°C° 0 mm 2 mps 725 mmHg 18%
    14:00 +23°C° 0 mm 2 mps 725 mmHg 17%
    15:00 +23°C° 0 mm 2 mps 725 mmHg 17%
    16:00 +22°C° 0 mm 3 mps 726 mmHg 17%
    17:00 +22°C° 0 mm 3 mps 726 mmHg 17%
    18:00 +21°C° 0 mm 3 mps 727 mmHg 19%
    19:00 +20°C° 0 mm 2 mps 727 mmHg 22%
    20:00 +19°C° 0 mm 2 mps 728 mmHg 25%
    21:00 +18°C° 0 mm 2 mps 728 mmHg 29%
    22:00 +17°C° 0 mm 2 mps 728 mmHg 33%
    23:00 +16°C° 0 mm 2 mps 728 mmHg 37%

    24 March, Sunday

    Time Temperature Precipitation Wind Pressure Humidity
    00:00 +16°C° 0 mm 2 mps 728 mmHg 42%
    01:00 +15°C° 0 mm 2 mps 729 mmHg 47%
    02:00 +14°C° 0 mm 2 mps 729 mmHg 51%
    03:00 +14°C° 0 mm 1 mps 729 mmHg 55%
    04:00 +13°C° 0 mm 1 mps 729 mmHg 58%
    05:00 +13°C° 0 mm 1 mps 729 mmHg 62%
    06:00 +13°C° 0 mm 1 mps 729 mmHg 61%
    07:00 +14°C° 0 mm 1 mps 729 mmHg 60%
    08:00 +14°C° 0 mm 1 mps 729 mmHg 59%
    09:00 +15°C° 0 mm 1 mps 729 mmHg 53%
    10:00 +18°C° 0 mm 1 mps 728 mmHg 47%
    11:00 +19°C° 0 mm 1 mps 728 mmHg 41%
    12:00 +20°C° 0 mm 1 mps 728 mmHg 37%
    13:00 +21°C° 0 mm 1 mps 727 mmHg 32%
    14:00 +22°C° 0 mm 1 mps 727 mmHg 27%
    15:00 +22°C° 0 mm 1 mps 727 mmHg 26%
    16:00 +23°C° 0 mm 1 mps 727 mmHg 24%
    17:00 +21°C° 0 mm 0 mps 727 mmHg 23%
    18:00 +20°C° 0 mm 0 mps 728 mmHg 25%
    19:00 +19°C° 0 mm 0 mps 728 mmHg 27%
    20:00 +18°C° 0 mm 0 mps 729 mmHg 29%
    21:00 +19°C° 0 mm 1 mps 729 mmHg 30%
    22:00 +18°C° 0 mm 2 mps 729 mmHg 32%
    23:00 +17°C° 0 mm 2 mps 729 mmHg 33%

    25 March, Monday

    Time Temperature Precipitation Wind Pressure Humidity
    00:00 +16°C° 0 mm 2 mps 729 mmHg 34%
    01:00 +14°C° 0 mm 3 mps 729 mmHg 35%
    02:00 +14°C° 0 mm 3 mps 728 mmHg 35%
    03:00 +13°C° 0 mm 3 mps 728 mmHg 35%
    04:00 +13°C° 0 mm 3 mps 728 mmHg 35%
    05:00 +12°C° 0 mm 3 mps 728 mmHg 35%
    06:00 +13°C° 0 mm 3 mps 728 mmHg 34%
    07:00 +14°C° 0 mm 3 mps 728 mmHg 32%
    08:00 +14°C° 0 mm 3 mps 728 mmHg 30%
    09:00 +18°C° 0 mm 3 mps 727 mmHg 26%
    10:00 +20°C° 0 mm 3 mps 727 mmHg 21%
    11:00 +22°C° 0 mm 3 mps 726 mmHg 17%
    12:00 +23°C° 0 mm 4 mps 725 mmHg 15%
    13:00 +25°C° 0 mm 4 mps 725 mmHg 13%
    14:00 +26°C° 0 mm 4 mps 724 mmHg 11%
    15:00 +26°C° 0 mm 4 mps 724 mmHg 11%
    16:00 +26°C° 0 mm 4 mps 723 mmHg 12%
    17:00 +26°C° 0 mm 5 mps 723 mmHg 12%
    18:00 +25°C° 0 mm 5 mps 723 mmHg 15%
    19:00 +22°C° 0 mm 4 mps 723 mmHg 19%
    20:00 +20°C° 0 mm 4 mps 723 mmHg 22%
    21:00 +20°C° 0 mm 3 mps 723 mmHg 22%
    22:00 +19°C° 0 mm 3 mps 723 mmHg 23%
    23:00 +18°C° 0 mm 2 mps 723 mmHg 23%
    Show more